星链-3072 (STARLINK-3072 )

导读 | 星芒AI

STARLINK-3072 是 SpaceX Starlink 卫星互联网计划中的一颗低轨卫星,属于第三代星链卫星(v1.5 或 v2 版本)。它运行在约 550 公里的轨道高度,旨在为全球用户提供高速、低延迟的宽带互联网服务。该卫星采用先进推进系统和激光通信技术,以提升网络稳定性和效率。作为星链计划的一部分,STARLINK-3072 有助于扩大覆盖范围,特别是在偏远和网络基础设施薄弱的地区。

基本信息
目录编号:
49153
目录名称:
STARLINK-3072
国际标识:
2021-082Z
轨道中心:
EARTH
卫星名称:
星链-3072
卫星全名:
星链-3072 (STARLINK-3072 )
卫星状态:
在轨 (已飞行1508 天)
发射日期:
2021-09-14 UTC
国别 :
美国 (US)
星等 :
--
轨道信息
数据来源 国际轨道数据
星历时间: 2025-10-31T06:04:13+0800
9小时前
查看轨道信息
半长轴: 6950.197km
偏心率: 0.0002762
轨道倾角: 70.000°
近地点辐角 272.001°
升交点赤经 221.648°
平近点角 88.084°
近地点: 570.142km
远地点: 573.982km
周期: 96.107分钟
每日圈数: 14.983289
详细信息
固有亮度:
5
最大亮度:
2.5
卫星平台:
Starlink v1.5
覆盖范围:
全球
运营商:
太空探索技术公司
运营商所在国:
美国
制造商(研发单位):
太空探索技术公司
制造商所在国:
美国
使用方式:
暂无
卫星简介
星链(Starlink)计划是由太空探索技术公司(SpaceX)提出的一个巨型低轨卫星互联网星座项目,计划在2019年至2024年间在太空搭建由约1.2万颗卫星组成的“星链”网络,其中1584颗将部署在地球上空550千米处的近地轨道,并从2020年开始工作。该卫星仍在工作。
2D轨道图
3D轨道图
轨道高度分析图
轨道倾角分析图
轨道综合分析图
查看轨道综合分析图